COSMOS 2251 DEB

Satellite information

Favourite Embed

Satellite Type and Status

DEBRISIN ORBIT

Key statistics

Satellite COSMOS 2251 DEB at a glance.

Uptime

11709

Days in orbit

Revolutions

≈ 14.4

Per day

Orbit

LEO

Low Earth Orbit

Inclination

74.0

Latest

Satellite identification and parameters

Extended collection of information and parameters for COSMOS 2251 DEB.

Object identification

Identified? True

Debris? True

Object name: COSMOS 2251 DEB

International designator: 1993-036BNM

Object number (NORAD): 37532

Object ID (CCSDS): 37532

Country: COMMONWEALTH OF INDEPENDENT STATES (CIS)

Current information (Y/N): Y

RCS size: SMALL

Orbital parameters

Period: 99.856 minutes

Inclination: 74.0497 deg

SMA: 7129.767 km

Apoapsis: 763.543 km

Periapsis: 739.721 km

RAAN: 154.8398 deg

Eccentricy: 0.0016706

Argument of periapsis: 296.4466 deg

Mean anomaly: 131.0721 deg

Mean motion: 14.42081435 rev/day

Mean motion (dot): 0.00000568 rev/day2

B* drag term: 0.00018059 1/REarth

Two-line elements (TLE)

Creation date: July 4, 2025, 6:39 p.m.

Reference frame: TEME

Reference center: EARTH

Epoch: July 4, 2025, 6:58 a.m. UTC

TLE line 0: 0 COSMOS 2251 DEB

TLE line 1: 1 37532U 93036BNM 25185.29075779 .00000568 00000-0 18059-3 0 9993

TLE line 2: 2 37532 74.0497 154.8398 0016706 296.4466 131.0721 14.42081435825886

Live tracking on map

Real-time ground track for satellite COSMOS 2251 DEB.

In-orbit conjunctions

A list of the most updated potential collisions computed for object COSMOS 2251 DEB.

Target Orbit TCA Probability of collision Miss distance Type
CZ-6A DEB SSO 2025-04-11 13:11:05 0.000232025 416.0 (m) DEBRIS
IRIDIUM 69 LEO 2024-11-24 05:33:21 0.0006482783 178.0 (m) PAYLOAD

Associated space launch

Military communications satellite. Destroyed in a collision with Iridium 33.

COSMOS 2251 DEB was lifted into orbit during the mission ‘Kosmos-3M | Strela-2M 51’, on board a Kosmos-3M space rocket.

The launch took place on June 16, 1993, 4:17 a.m. from 132/1 (132L).

For more information about the launch, click the button.

Launch to space Kosmos-3M | Strela-2M 51
Kosmos-3M | Strela-2M 51

Agency: N/A

Status: Launch Successful

Launch date: June 16, 1993, 4:17 a.m. UTC

Rocket: Kosmos-3M

Launch pad: 132/1 (132L)

Location: Plesetsk Cosmodrome, Russian Federation

...

Latest news about this satellite

There are no fresh news available about this satellite. Check back as we update our databases every day.


Newsletter sign-up

Weekly statistics, charts and insights to help you stay on top of the space industry.